Погода в Елабуге

Россия / Хабаровский край     48°47′55″N   135°51′46″E
темп.,
°C
ветер,
м/с
пор.,
м/с
влажн.,
%
обл.,
%
осадки,
мм/ч
давл.,
гПа
погр.,
м
23 октября, сб
сб2301:00+2ююз610745 0.0 1017308
04:00+1ююз510765 0.0 1016300
07:00+1ююз59775 0.0 1016291
10:00+4юз68685 0.0 1017535
13:00+9зюз6855100 0.0 1016769
16:00+11зюз6105429 0.0 1015980
19:00+8юз510651 0.0 1015282
22:00+7юз511690 0.0 1015310
24 октября, вс
вс2401:00+6зюз610690 0.0 1015347
04:00+5юз612730 0.0 1015394
07:00+4юз612760 0.0 1016392
10:00+7юз711660 0.0 1017531
13:00+10юз68510 0.0 1017908
16:00+12юз57490 0.0 10171059
19:00+8ююз47625 0.0 1018134
22:00+7ююз48665 0.0 1019160
25 октября, пн
пн2501:00+5ююз48690 0.0 1019189
04:00+5ююз49710 0.0 1019209
07:00+4ююз59730 0.0 1019234
10:00+7ююз59635 0.0 1020366
13:00+11юз69480 0.0 1018874
16:00+12юз58480 0.0 1017920
19:00+8ююз48653 0.0 1017175
22:00+7ю411715 0.0 1018247
26 октября, вт
вт2601:00+7ююз512735 0.0 1017295
04:00+5ююз487753 0.0 1017185
07:00+4ююз48785 0.0 1016186
10:00+7ююз59645 0.0 1017336
13:00+12ююз58515 0.0 1015821
16:00+12ююз475698 0.0 1014829
19:00+11ю3962100 0.0 1013218
22:00+9ю496593 0.0 1013267
27 октября, ср
ср2701:00+8ю41172100 0.0 1011289
04:00+8ю5127699 0.3 1010390
07:00+7ююз4980100 0.0 1009319
10:00+8ююз5978100 0.2 1009459
13:00+11юз575719 0.0 10091336
16:00+11зюз5751100 0.0 10081664
19:00+8зюз4862100 0.0 1010396
22:00+7зюз3666100 0.0 1010216